[[{"header":{"parameterUnit":"m.s-1","parameterCategory":1,"la1":30.2991,"la2":30.254,"lo1":-89.0895,"lo2":-89.0444,"dy":0.0017,"dx":0.0017,"nx":28,"ny":28,"refTime":"2025-06-05T03:00:00:Z","depth":0,"parameterNumber":2,"parameterNumberName":"U-component_of_WINDS"},"data":[0,0,0,0,0,0,0,0,0,0,0,0,0,0,0,0,0,0,0,0,0,0,0,0,0,0,0,0,0,0,0,0,0,0,0,0,0,0,0,0,0,0,0,0,0,0,0,0,0,0,0,0,0,0,0,0,0,0,3.8963,3.8964,0,3.9089,3.9091,3.9092,3.9068,3.9066,3.9064,3.9062,3.9189,3.9195,3.92,0,0,0,0,0,0,0,0,0,0,0,0,0,3.8696,3.8701,3.8962,3.8964,3.8966,3.9089,3.9091,3.9093,3.9069,3.9066,3.9063,3.9061,3.9187,3.9194,3.9201,0,0,0,0,0,0,0,0,0,0,0,0,0,3.8816,3.8703,3.8962,3.8969,3.8971,3.9089,3.9091,3.9093,3.9069,3.9066,3.9062,3.9059,3.9185,3.9193,3.9201,3.9321,0,0,3.9227,3.923,0,0,0,0,0,0,0,0,3.881,3.8826,3.8966,3.8968,3.8971,3.906,3.9044,3.9169,3.907,3.9032,3.9062,3.9058,3.9149,3.916,3.9191,3.9327,3.9332,3.9227,3.9232,3.9236,3.9238,0,0,0,0,0,0,0,3.8801,3.8821,3.9013,3.8968,3.8971,3.8964,3.8978,3.9068,3.9108,3.9035,3.9033,3.9049,3.9149,3.9183,3.9194,3.9334,3.9227,3.9235,3.924,3.9243,3.9571,3.9574,0,0,0,0,0,0,3.8791,3.8814,3.9009,3.9016,3.888,3.8972,3.8987,3.9034,3.9107,3.9114,3.9052,3.9047,3.9171,3.9184,3.9198,3.934,3.9236,3.9244,3.9248,3.9567,3.9572,3.9576,0,0,0,0,0,0,3.8786,3.8809,3.9003,3.8915,3.8939,3.898,3.9034,3.9039,3.9072,3.9119,3.9126,3.9079,3.9168,3.9187,3.929,3.9344,3.9247,3.9255,3.9563,3.9568,3.9574,3.9626,0,0,0,0,0,0,3.8778,3.8807,3.8854,3.8916,3.8944,3.9094,3.9037,3.9044,3.9087,3.9083,3.9147,3.9154,3.9167,3.9278,3.9298,3.9354,3.9261,3.9558,3.9565,3.9572,3.9619,3.9633,3.9644,0,0,0,0,0,3.8769,3.8863,3.8856,3.888,3.9003,3.9097,3.9113,3.9127,3.9092,3.9138,3.9168,3.9152,3.9336,3.9288,3.9311,3.937,3.9554,3.9563,3.9571,3.9614,3.963,3.9644,0,0,0,0,0,0,3.8805,3.8872,3.8864,3.8982,3.9034,3.9093,3.9152,3.9144,3.9207,3.92,3.9213,3.9228,3.9332,3.9362,3.9309,3.9488,3.944,3.9453,3.9464,3.948,3.9492,3.9481,3.9268,0,0,0,0,0,3.8827,3.8899,3.8953,3.9052,3.9078,3.9111,3.9152,3.9159,3.9213,3.9235,3.9272,3.9325,3.9394,3.9439,3.9506,3.9625,3.9636,3.9676,3.9688,3.9698,3.9709,3.9771,3.9788,3.9603,3.9603,3.9603,0,0,3.8873,3.8918,3.8962,3.906,3.9101,3.9174,3.9129,3.9209,3.9262,3.9246,3.9345,3.9375,3.9435,3.9546,3.9596,3.9573,3.9763,3.9709,3.9716,3.9722,3.9781,3.9799,3.9814,3.9609,3.9608,3.9607,0,0,3.8992,3.9035,3.912,3.9163,3.9226,3.9247,3.9267,3.9328,3.9347,3.9447,3.9436,3.9499,3.9619,3.9661,3.9698,3.9833,3.982,3.9855,3.9917,3.9978,3.9992,4.0005,4.005,4.0067,3.9866,3.9866,3.9866,0,3.904,3.915,3.9165,3.9245,3.9287,3.9278,3.9363,3.9403,3.9485,3.9513,3.9487,3.9636,3.9676,3.9795,3.9827,3.9859,3.9881,3.9846,3.9989,4.0003,4.0015,4.0058,4.0075,3.987,3.9869,3.9869,3.9868,0,3.9205,3.9282,3.9343,3.9422,3.9471,3.9554,3.958,3.9628,3.963,3.9653,3.9754,3.9802,3.9876,3.9906,3.9909,4.0025,4.0009,3.9986,3.9937,4.0036,4.0076,4.0093,3.9875,3.9873,3.9872,3.9871,0,0,3.935,3.9435,3.9457,3.9492,3.9561,3.962,3.9701,3.9775,3.9814,3.9872,3.9938,4.004,4.0019,4.0061,4.0069,4.0122,4.0222,4.0093,4.0094,4.0112,4.035,4.0364,4.0383,4.0216,4.0219,4.0222,4.0344,0,3.9473,3.9617,3.9632,3.976,3.9829,3.9821,3.9892,3.9941,3.9965,4.0026,4.0053,4.0123,4.0092,4.0117,4.017,4.0199,4.027,4.0191,4.0275,4.0278,4.0257,4.0405,4.0421,4.0534,4.036,4.0363,4.0365,0,3.9636,3.9697,3.9832,3.9889,3.9919,3.9982,4.0049,4.011,4.0164,4.0178,4.0225,4.0225,4.0308,4.0258,4.037,4.0316,4.0352,4.0372,4.0376,4.0382,4.0325,4.0411,4.0571,4.0586,4.0391,4.0389,4.0387,0,3.9723,3.984,3.9934,3.9965,4.0035,4.0079,4.0111,4.0163,4.0205,4.0265,4.0292,4.036,4.0397,4.0449,4.0467,4.043,4.0578,4.053,4.0589,4.0588,4.0618,4.0615,4.0781,4.0647,4.0646,4.0646,4.0646,0,3.9857,3.9939,3.9974,4.0032,4.0123,4.0141,4.023,4.0259,4.0305,4.0367,4.0366,4.0424,4.0446,4.0508,4.0523,4.0612,4.0629,4.0641,4.0643,4.0639,4.0637,4.066,4.0651,4.0651,4.065,4.0649,4.0648,0,3.9969,3.9996,4.0099,4.0157,4.0174,4.0238,4.0287,4.0342,4.0366,4.0445,4.0465,4.0501,4.0574,4.0598,4.0686,4.0696,4.0798,4.0796,4.0779,4.0779,4.0835,4.0828,4.1019,4.1044,4.0896,4.0897,4.0898,0,4.0051,4.0114,4.0179,4.0221,4.0254,4.0322,4.0365,4.0384,4.0429,4.0496,4.0543,4.0615,4.0673,4.0789,4.0823,4.0889,4.0886,4.0949,4.0896,4.0889,4.0883,4.0877,4.0882,4.0957,4.0959,4.096,4.0961,0,4.0193,4.0203,4.0266,4.0334,4.0386,4.044,4.0492,4.0526,4.0553,4.0604,4.0678,4.0723,4.0813,4.0883,4.0951,4.0982,4.0975,4.0978,4.0994,4.0989,4.0976,4.098,4.0802,4.0973,4.0971,4.0971,4.097,4.097,4.029,4.0344,4.0398,4.0468,4.0509,4.0558,4.0612,4.0643,4.0705,4.0779,4.0787,4.0866,4.0918,4.1009,4.1043,4.1104,4.1087,4.1111,4.1117,4.1122,4.1124,4.0969,4.1117,4.1117,4.1117,4.1117,4.1116,0,4.0428,4.0463,4.0527,4.06,4.0654,4.0645,4.0702,4.0748,4.0818,4.0868,4.0925,4.1009,4.1077,4.1117,4.1185,4.1226,4.1224,4.1243,4.1238,4.1244,4.1138,4.1115,4.1243,4.1243,4.1243,4.1242,4.1242,4.1242,4.0507,4.0597,4.0614,4.0724,4.0758,4.0835,4.0868,4.0913,4.0952,4.1046,4.1103,4.1129,4.1174,4.1245,4.1306,4.1316,4.1339,4.1359,4.1366,4.1266,4.1252,4.124,4.1218,4.1365,4.1365,4.1467,4.1468,4.1469]},{"header":{"parameterUnit":"m.s-1","parameterCategory":1,"la1":30.2991,"la2":30.254,"lo1":-89.0895,"lo2":-89.0444,"dy":0.0017,"dx":0.0017,"nx":28,"ny":28,"refTime":"2025-06-05T03:00:00:Z","depth":0,"parameterNumber":3,"parameterNumberName":"V-component_of_WINDS"},"data":[0,0,0,0,0,0,0,0,0,0,0,0,0,0,0,0,0,0,0,0,0,0,0,0,0,0,0,0,0,0,0,0,0,0,0,0,0,0,0,0,0,0,0,0,0,0,0,0,0,0,0,0,0,0,0,0,0,0,2.425,2.4251,0,2.431,2.4311,2.4311,2.4282,2.4281,2.4279,2.4278,2.4337,2.434,2.4343,0,0,0,0,0,0,0,0,0,0,0,0,0,2.4107,2.4109,2.425,2.4251,2.4251,2.431,2.4311,2.4312,2.4283,2.4281,2.4279,2.4277,2.4336,2.434,2.4344,0,0,0,0,0,0,0,0,0,0,0,0,0,2.4168,2.411,2.425,2.4244,2.4244,2.431,2.4311,2.4312,2.4283,2.4281,2.4278,2.4276,2.4335,2.434,2.4344,2.4418,0,0,2.4358,2.436,0,0,0,0,0,0,0,0,2.4165,2.4173,2.4244,2.4245,2.4245,2.4286,2.4282,2.4347,2.4284,2.4268,2.4278,2.4275,2.4322,2.4328,2.4344,2.4421,2.4424,2.4358,2.4361,2.4363,2.4364,0,0,0,0,0,0,0,2.416,2.417,2.4274,2.4245,2.4246,2.4237,2.4243,2.4294,2.4307,2.4269,2.4267,2.4275,2.4322,2.434,2.4345,2.4425,2.4358,2.4362,2.4365,2.4367,2.4564,2.4566,0,0,0,0,0,0,2.4157,2.4167,2.4272,2.4275,2.4198,2.4242,2.4249,2.4275,2.4307,2.4309,2.4277,2.4273,2.4333,2.434,2.4347,2.4435,2.4363,2.4367,2.437,2.4561,2.4564,2.4567,0,0,0,0,0,0,2.4154,2.4166,2.4269,2.4221,2.4233,2.4247,2.4277,2.4278,2.4295,2.4312,2.4314,2.4293,2.4331,2.4341,2.4401,2.4437,2.4369,2.4373,2.4558,2.4562,2.4565,2.4612,0,0,0,0,0,0,2.415,2.4165,2.4195,2.4222,2.4236,2.4323,2.4279,2.4281,2.4304,2.43,2.4328,2.433,2.433,2.4394,2.4405,2.4442,2.4377,2.4555,2.456,2.4564,2.4608,2.4617,2.4625,0,0,0,0,0,2.4145,2.4206,2.4196,2.4209,2.4273,2.4325,2.4333,2.4333,2.4307,2.4336,2.4346,2.433,2.4431,2.44,2.4413,2.4451,2.4553,2.4558,2.4564,2.4604,2.4615,2.4625,0,0,0,0,0,0,2.4182,2.4209,2.4199,2.4271,2.4296,2.432,2.4357,2.4345,2.4378,2.4373,2.437,2.4376,2.4438,2.445,2.4416,2.4524,2.4488,2.4496,2.4514,2.4525,2.4534,2.4529,2.4381,0,0,0,0,0,2.4199,2.424,2.4261,2.4322,2.4335,2.4344,2.4366,2.4363,2.4389,2.44,2.4414,2.4439,2.4476,2.4501,2.4537,2.4609,2.4614,2.4641,2.465,2.4657,2.4665,2.4702,2.4714,2.4585,2.4585,2.4585,0,0,2.4234,2.4253,2.4279,2.433,2.4349,2.439,2.4353,2.4399,2.4429,2.4406,2.4464,2.4475,2.4503,2.4569,2.4598,2.4581,2.4701,2.4665,2.467,2.4674,2.4709,2.4721,2.4732,2.4589,2.4588,2.4588,0,0,2.4318,2.4338,2.439,2.441,2.4439,2.4444,2.4457,2.4483,2.449,2.4547,2.4531,2.4566,2.463,2.465,2.4669,2.4758,2.4744,2.477,2.4817,2.4853,2.4863,2.4872,2.4904,2.4915,2.4777,2.4777,2.4777,0,2.4358,2.442,2.4418,2.4465,2.4487,2.4468,2.452,2.4539,2.4579,2.4594,2.4573,2.4653,2.467,2.474,2.4762,2.4777,2.479,2.4767,2.4862,2.4871,2.488,2.4909,2.4921,2.478,2.478,2.4779,2.4779,0,2.4467,2.451,2.4549,2.4587,2.4613,2.4663,2.4667,2.4693,2.4687,2.4694,2.4752,2.4772,2.481,2.4826,2.4821,2.4895,2.4883,2.4862,2.4826,2.4895,2.4923,2.4934,2.4784,2.4783,2.4782,2.4782,0,0,2.4578,2.4614,2.4628,2.4644,2.4675,2.4708,2.4755,2.4793,2.4815,2.4842,2.4881,2.4935,2.4916,2.4937,2.4934,2.4966,2.5034,2.4941,2.4942,2.4957,2.5115,2.513,2.5143,2.5024,2.5027,2.5028,2.5113,0,2.4664,2.4748,2.4747,2.4825,2.4864,2.4845,2.4886,2.4909,2.4916,2.4949,2.4956,2.4995,2.4967,2.4979,2.501,2.5019,2.5066,2.5013,2.506,2.5061,2.5054,2.5158,2.5175,2.5253,2.5123,2.5125,2.5127,0,2.4777,2.4807,2.4889,2.4912,2.4928,2.4966,2.4999,2.5031,2.5055,2.5058,2.5081,2.5072,2.5118,2.508,2.5144,2.5108,2.5126,2.5133,2.5136,2.5141,2.5098,2.5165,2.5278,2.529,2.5144,2.5142,2.5141,0,2.4849,2.491,2.4967,2.4982,2.501,2.5036,2.5049,2.5071,2.5093,2.5122,2.5136,2.517,2.5188,2.5214,2.5213,2.5186,2.5277,2.5239,2.528,2.528,2.53,2.5299,2.5418,2.5312,2.5312,2.5312,2.5312,0,2.4945,2.4996,2.5,2.5034,2.509,2.5087,2.5141,2.5151,2.517,2.5206,2.5191,2.5224,2.5222,2.5255,2.5255,2.5307,2.5315,2.5318,2.5317,2.5319,2.5319,2.5332,2.5326,2.5315,2.5314,2.5314,2.5313,0,2.5036,2.504,2.51,2.5122,2.5129,2.5168,2.5186,2.5218,2.5223,2.5268,2.5278,2.5286,2.5324,2.5326,2.537,2.537,2.5433,2.5426,2.5425,2.5424,2.5464,2.546,2.5595,2.5612,2.5496,2.5497,2.5498,0,2.5097,2.5135,2.5161,2.5183,2.5198,2.5235,2.5257,2.5255,2.5279,2.5308,2.5336,2.5373,2.5402,2.5464,2.5473,2.5506,2.5499,2.5544,2.5504,2.5505,2.5499,2.5497,2.55,2.5552,2.5554,2.5555,2.5556,0,2.5205,2.5205,2.5238,2.5272,2.5299,2.5326,2.535,2.5369,2.537,2.5397,2.5436,2.5459,2.5503,2.5539,2.5571,2.5582,2.5569,2.5568,2.5579,2.5582,2.5579,2.558,2.5446,2.5565,2.5564,2.5564,2.5563,2.5563,2.5282,2.5315,2.5338,2.5375,2.5393,2.5416,2.5447,2.5455,2.5488,2.5524,2.5521,2.5563,2.5584,2.5626,2.564,2.5672,2.5657,2.5673,2.5677,2.5681,2.5685,2.5574,2.5678,2.5678,2.5678,2.5677,2.5677,0,2.5389,2.5402,2.5436,2.5471,2.55,2.5485,2.551,2.5535,2.5573,2.5594,2.5623,2.5667,2.5702,2.5713,2.5746,2.577,2.5764,2.5778,2.5777,2.5779,2.5697,2.5684,2.5782,2.5782,2.5782,2.5782,2.5782,2.5782,2.5448,2.5502,2.5504,2.5567,2.5579,2.5622,2.5638,2.5658,2.5675,2.5724,2.5753,2.576,2.5777,2.5811,2.5841,2.5843,2.5856,2.5873,2.5872,2.5796,2.5785,2.5775,2.5763,2.5876,2.5876,2.5952,2.5952,2.5953]}]]